Tracking 35274 objects as of 11-Sep-2026
HD Live streaming from Space Station
objects crossing your sky now

SPARTAN 1


SPARTAN 1 is no longer on orbit


NORAD ID: 23253
Int'l Code: 1994-059B
Launch date: September 9, 1994
Source: United States (US)
Launch site: AIR FORCE EASTERN TEST RANGE (AFETR)
Decay date: 1994-09-20
Your satellite tracking list
Your tracking list is empty




NASA's NSSDC Master Catalog

Two Line Element Set (TLE):
1 23253U 94059  B 94261.91666668  .00007793 +00000-0 +74319-5 0  9997
2 23253 057.0071 182.1380 0009276 282.5876 267.1440 16.12300804001440
Source of the keplerian elements: AFSPC